Year,Month,Day,Hour,Minute,Value (Times are PST for temperature in C)
2015,06,23,00,00,15.50
2015,06,23,00,01,15.50
2015,06,23,00,02,15.50
2015,06,23,00,03,15.50
2015,06,23,00,04,15.40
2015,06,23,00,05,15.40
2015,06,23,00,06,15.40
2015,06,23,00,07,15.40
2015,06,23,00,08,15.30
2015,06,23,00,09,15.30
2015,06,23,00,10,15.30
2015,06,23,00,11,15.30
2015,06,23,00,12,15.30
2015,06,23,00,13,15.30
2015,06,23,00,14,15.20
2015,06,23,00,15,15.20
2015,06,23,00,16,15.20
2015,06,23,00,17,15.20
2015,06,23,00,18,15.10
2015,06,23,00,19,15.10
2015,06,23,00,20,15.10
2015,06,23,00,21,15.10
2015,06,23,00,22,15.10
2015,06,23,00,23,15.10
2015,06,23,00,24,15.00
2015,06,23,00,25,15.00
2015,06,23,00,26,15.00
2015,06,23,00,27,15.00
2015,06,23,00,28,15.00
2015,06,23,00,29,15.00
2015,06,23,00,30,14.90
2015,06,23,00,31,14.90
2015,06,23,00,32,14.90
2015,06,23,00,33,14.90
2015,06,23,00,34,14.80
2015,06,23,00,35,14.80
2015,06,23,00,36,14.80
2015,06,23,00,37,14.80
2015,06,23,00,38,14.80
2015,06,23,00,39,14.80
2015,06,23,00,40,14.80
2015,06,23,00,41,14.80
2015,06,23,00,42,14.80
2015,06,23,00,43,14.80
2015,06,23,00,44,14.80
2015,06,23,00,45,14.80
2015,06,23,00,46,14.80
2015,06,23,00,47,14.80
2015,06,23,00,48,14.80
2015,06,23,00,49,14.80
2015,06,23,00,50,14.80
2015,06,23,00,51,14.80
2015,06,23,00,52,14.80
2015,06,23,00,53,14.80
2015,06,23,00,54,14.80
2015,06,23,00,55,14.80
2015,06,23,00,56,14.80
2015,06,23,00,57,14.80
2015,06,23,00,58,14.80
2015,06,23,00,59,14.80
2015,06,23,01,00,14.80
2015,06,23,01,01,14.80
2015,06,23,01,02,14.80
2015,06,23,01,03,14.80
2015,06,23,01,04,14.80
2015,06,23,01,05,14.80
2015,06,23,01,06,14.80
2015,06,23,01,07,14.80
2015,06,23,01,08,14.80
2015,06,23,01,09,14.80
2015,06,23,01,10,14.80
2015,06,23,01,11,14.80
2015,06,23,01,12,14.80
2015,06,23,01,13,14.80
2015,06,23,01,14,14.80
2015,06,23,01,15,14.80
2015,06,23,01,16,14.80
2015,06,23,01,17,14.90
2015,06,23,01,18,14.90
2015,06,23,01,19,14.90
2015,06,23,01,20,14.90
2015,06,23,01,21,14.90
2015,06,23,01,22,14.90
2015,06,23,01,23,14.90
2015,06,23,01,24,14.90
2015,06,23,01,25,14.90
2015,06,23,01,26,14.90
2015,06,23,01,27,14.90
2015,06,23,01,28,14.80
2015,06,23,01,29,14.80
2015,06,23,01,30,14.80
2015,06,23,01,31,14.80
2015,06,23,01,32,14.80
2015,06,23,01,33,14.80
2015,06,23,01,34,14.80
2015,06,23,01,35,14.80
2015,06,23,01,36,14.80
2015,06,23,01,37,14.80
2015,06,23,01,38,14.80
2015,06,23,01,39,14.80
2015,06,23,01,40,14.80
2015,06,23,01,41,14.70
2015,06,23,01,42,14.70
2015,06,23,01,43,14.70
2015,06,23,01,44,14.60
2015,06,23,01,45,14.60
2015,06,23,01,46,14.60
2015,06,23,01,47,14.60
2015,06,23,01,48,14.60
2015,06,23,01,49,14.60
2015,06,23,01,50,14.60
2015,06,23,01,51,14.50
2015,06,23,01,52,14.50
2015,06,23,01,53,14.50
2015,06,23,01,54,14.50
2015,06,23,01,55,14.50
2015,06,23,01,56,14.50
2015,06,23,01,57,14.50
2015,06,23,01,58,14.50
2015,06,23,01,59,14.40
2015,06,23,02,00,14.40
2015,06,23,02,01,14.40
2015,06,23,02,02,14.40
2015,06,23,02,03,14.40
2015,06,23,02,04,14.40
2015,06,23,02,05,14.40
2015,06,23,02,06,14.40
2015,06,23,02,07,14.30
2015,06,23,02,08,14.30
2015,06,23,02,09,14.30
2015,06,23,02,10,14.30
2015,06,23,02,11,14.30
2015,06,23,02,12,14.20
2015,06,23,02,13,14.20
2015,06,23,02,14,14.20
2015,06,23,02,15,14.20
2015,06,23,02,16,14.20
2015,06,23,02,17,14.10
2015,06,23,02,18,14.10
2015,06,23,02,19,14.10
2015,06,23,02,20,14.00
2015,06,23,02,21,14.00
2015,06,23,02,22,14.00
2015,06,23,02,23,13.90
2015,06,23,02,24,13.90
2015,06,23,02,25,13.90
2015,06,23,02,26,13.80
2015,06,23,02,27,13.80
2015,06,23,02,28,13.80
2015,06,23,02,29,13.80
2015,06,23,02,30,13.70
2015,06,23,02,31,13.70
2015,06,23,02,32,13.70
2015,06,23,02,33,13.70
2015,06,23,02,34,13.70
2015,06,23,02,35,13.70
2015,06,23,02,36,13.70
2015,06,23,02,37,13.70
2015,06,23,02,38,13.70
2015,06,23,02,39,13.70
2015,06,23,02,40,13.70
2015,06,23,02,41,13.70
2015,06,23,02,42,13.70
2015,06,23,02,43,13.70
2015,06,23,02,44,13.70
2015,06,23,02,45,13.70
2015,06,23,02,46,13.70
2015,06,23,02,47,13.70
2015,06,23,02,48,13.70
2015,06,23,02,49,13.70
2015,06,23,02,50,13.70
2015,06,23,02,51,13.70
2015,06,23,02,52,13.70
2015,06,23,02,53,13.70
2015,06,23,02,54,13.70
2015,06,23,02,55,13.60
2015,06,23,02,56,13.60
2015,06,23,02,57,13.60
2015,06,23,02,58,13.60
2015,06,23,02,59,13.60
2015,06,23,03,00,13.60
2015,06,23,03,01,13.60
2015,06,23,03,02,13.60
2015,06,23,03,03,13.60
2015,06,23,03,04,13.50
2015,06,23,03,05,13.50
2015,06,23,03,06,13.50
2015,06,23,03,07,13.50
2015,06,23,03,08,13.50
2015,06,23,03,09,13.40
2015,06,23,03,10,13.40
2015,06,23,03,11,13.40
2015,06,23,03,12,13.40
2015,06,23,03,13,13.30
2015,06,23,03,14,13.30
2015,06,23,03,15,13.30
2015,06,23,03,16,13.30
2015,06,23,03,17,13.30
2015,06,23,03,18,13.30
2015,06,23,03,19,13.30
2015,06,23,03,20,13.20
2015,06,23,03,21,13.20
2015,06,23,03,22,13.20
2015,06,23,03,23,13.20
2015,06,23,03,24,13.10
2015,06,23,03,25,13.10
2015,06,23,03,26,13.10
2015,06,23,03,27,13.10
2015,06,23,03,28,13.10
2015,06,23,03,29,13.00
2015,06,23,03,30,13.00
2015,06,23,03,31,13.00
2015,06,23,03,32,13.00
2015,06,23,03,33,13.00
2015,06,23,03,34,13.00
2015,06,23,03,35,13.00
2015,06,23,03,36,12.90
2015,06,23,03,37,12.90
2015,06,23,03,38,12.90
2015,06,23,03,39,12.90
2015,06,23,03,40,12.90
2015,06,23,03,41,12.90
2015,06,23,03,42,12.90
2015,06,23,03,43,12.90
2015,06,23,03,44,12.80
2015,06,23,03,45,12.80
2015,06,23,03,46,12.80
2015,06,23,03,47,12.80
2015,06,23,03,48,12.80
2015,06,23,03,49,12.80
2015,06,23,03,50,12.80
2015,06,23,03,51,12.80
2015,06,23,03,52,12.80
2015,06,23,03,53,12.80
2015,06,23,03,54,12.70
2015,06,23,03,55,12.70
2015,06,23,03,56,12.70
2015,06,23,03,57,12.70
2015,06,23,03,58,12.70
2015,06,23,03,59,12.70
2015,06,23,04,00,12.70
2015,06,23,04,01,12.60
2015,06,23,04,02,12.60
2015,06,23,04,03,12.60
2015,06,23,04,04,12.60
2015,06,23,04,05,12.60
2015,06,23,04,06,12.60
2015,06,23,04,07,12.50
2015,06,23,04,08,12.50
2015,06,23,04,09,12.50
2015,06,23,04,10,12.50
2015,06,23,04,11,12.50
2015,06,23,04,12,12.50
2015,06,23,04,13,12.50
2015,06,23,04,14,12.50
2015,06,23,04,15,12.40
2015,06,23,04,16,12.40
2015,06,23,04,17,12.40
2015,06,23,04,18,12.40
2015,06,23,04,19,12.40
2015,06,23,04,20,12.40
2015,06,23,04,21,12.30
2015,06,23,04,22,12.30
2015,06,23,04,23,12.30
2015,06,23,04,24,12.30
2015,06,23,04,25,12.30
2015,06,23,04,26,12.30
2015,06,23,04,27,12.30
2015,06,23,04,28,12.20
2015,06,23,04,29,12.20
2015,06,23,04,30,12.20
2015,06,23,04,31,12.20
2015,06,23,04,32,12.20
2015,06,23,04,33,12.20
2015,06,23,04,34,12.20
2015,06,23,04,35,12.20
2015,06,23,04,36,12.20
2015,06,23,04,37,12.20
2015,06,23,04,38,12.20
2015,06,23,04,39,12.20
2015,06,23,04,40,12.20
2015,06,23,04,41,12.20
2015,06,23,04,42,12.20
2015,06,23,04,43,12.20
2015,06,23,04,44,12.20
2015,06,23,04,45,12.10
2015,06,23,04,46,12.10
2015,06,23,04,47,12.10
2015,06,23,04,48,12.10
2015,06,23,04,49,12.10
2015,06,23,04,50,12.00
2015,06,23,04,51,12.00
2015,06,23,04,52,12.00
2015,06,23,04,53,12.00
2015,06,23,04,54,12.00
2015,06,23,04,55,11.90
2015,06,23,04,56,11.90
2015,06,23,04,57,11.90
2015,06,23,04,58,11.90
2015,06,23,04,59,11.80
2015,06,23,05,00,11.80
2015,06,23,05,01,11.80
2015,06,23,05,02,11.80
2015,06,23,05,03,11.80
2015,06,23,05,04,11.70
2015,06,23,05,05,11.70
2015,06,23,05,06,11.70
2015,06,23,05,07,11.60
2015,06,23,05,08,11.60
2015,06,23,05,09,11.60
2015,06,23,05,10,11.60
2015,06,23,05,11,11.60
2015,06,23,05,12,11.40
2015,06,23,05,13,11.40
2015,06,23,05,14,11.40
2015,06,23,05,15,11.40
2015,06,23,05,16,11.40
2015,06,23,05,17,11.30
2015,06,23,05,18,11.30
2015,06,23,05,19,11.20
2015,06,23,05,20,11.20
2015,06,23,05,21,11.20
2015,06,23,05,22,11.20
2015,06,23,05,23,11.10
2015,06,23,05,24,11.10
2015,06,23,05,25,11.10
2015,06,23,05,26,11.10
2015,06,23,05,27,11.10
2015,06,23,05,28,11.10
2015,06,23,05,29,11.10
2015,06,23,05,30,11.10
2015,06,23,05,31,11.10
2015,06,23,05,32,11.10
2015,06,23,05,33,11.10
2015,06,23,05,34,11.10
2015,06,23,05,35,11.10
2015,06,23,05,36,11.10
2015,06,23,05,37,11.10
2015,06,23,05,38,11.10
2015,06,23,05,39,11.10
2015,06,23,05,40,11.10
2015,06,23,05,41,11.20
2015,06,23,05,42,11.20
2015,06,23,05,43,11.20
2015,06,23,05,44,11.30
2015,06,23,05,45,11.30
2015,06,23,05,46,11.40
2015,06,23,05,47,11.40
2015,06,23,05,48,11.40
2015,06,23,05,49,11.40
2015,06,23,05,50,11.50
2015,06,23,05,51,11.60
2015,06,23,05,52,11.60
2015,06,23,05,53,11.60
2015,06,23,05,54,11.60
2015,06,23,05,55,11.60
2015,06,23,05,56,11.70
2015,06,23,05,57,11.70
2015,06,23,05,58,11.80
2015,06,23,05,59,11.80
2015,06,23,06,00,11.80
2015,06,23,06,01,11.80
2015,06,23,06,02,11.90
2015,06,23,06,03,11.90
2015,06,23,06,04,12.00
2015,06,23,06,05,12.00
2015,06,23,06,06,12.00
2015,06,23,06,07,12.10
2015,06,23,06,08,12.10
2015,06,23,06,09,12.20
2015,06,23,06,10,12.20
2015,06,23,06,11,12.30
2015,06,23,06,12,12.30
2015,06,23,06,13,12.30
2015,06,23,06,14,12.30
2015,06,23,06,15,12.30
2015,06,23,06,16,12.30
2015,06,23,06,17,12.40
2015,06,23,06,18,12.40
2015,06,23,06,19,12.40
2015,06,23,06,20,12.50
2015,06,23,06,21,12.50
2015,06,23,06,22,12.50
2015,06,23,06,23,12.50
2015,06,23,06,24,12.60
2015,06,23,06,25,12.60
2015,06,23,06,26,12.60
2015,06,23,06,27,12.70
2015,06,23,06,28,12.80
2015,06,23,06,29,12.80
2015,06,23,06,30,12.80
2015,06,23,06,31,12.80
2015,06,23,06,32,12.80
2015,06,23,06,33,12.90
2015,06,23,06,34,13.00
2015,06,23,06,35,13.00
2015,06,23,06,36,13.10
2015,06,23,06,37,13.10
2015,06,23,06,38,13.20
2015,06,23,06,39,13.20
2015,06,23,06,40,13.20
2015,06,23,06,41,13.20
2015,06,23,06,42,13.30
2015,06,23,06,43,13.30
2015,06,23,06,44,13.30
2015,06,23,06,45,13.30
2015,06,23,06,46,13.30
2015,06,23,06,47,13.40
2015,06,23,06,48,13.40
2015,06,23,06,49,13.50
2015,06,23,06,50,13.50
2015,06,23,06,51,13.50
2015,06,23,06,52,13.60
2015,06,23,06,53,13.60
2015,06,23,06,54,13.60
2015,06,23,06,55,13.70
2015,06,23,06,56,13.70
2015,06,23,06,57,13.70
2015,06,23,06,58,13.80
2015,06,23,06,59,13.90
2015,06,23,07,00,13.90
2015,06,23,07,01,14.00
2015,06,23,07,02,14.10
2015,06,23,07,03,14.20
2015,06,23,07,04,14.20
2015,06,23,07,05,14.30
2015,06,23,07,06,14.50
2015,06,23,07,07,14.50
2015,06,23,07,08,14.60
2015,06,23,07,09,14.70
2015,06,23,07,10,14.70
2015,06,23,07,11,14.80
2015,06,23,07,12,14.80
2015,06,23,07,13,14.90
2015,06,23,07,14,14.90
2015,06,23,07,15,15.00
2015,06,23,07,16,15.00
2015,06,23,07,17,15.10
2015,06,23,07,18,15.20
2015,06,23,07,19,15.30
2015,06,23,07,20,15.30
2015,06,23,07,21,15.40
2015,06,23,07,22,15.40
2015,06,23,07,23,15.50
2015,06,23,07,24,15.60
2015,06,23,07,25,15.60
2015,06,23,07,26,15.70
2015,06,23,07,27,15.80
2015,06,23,07,28,15.80
2015,06,23,07,29,15.80
2015,06,23,07,30,15.80
2015,06,23,07,31,15.90
2015,06,23,07,32,16.00
2015,06,23,07,33,16.10
2015,06,23,07,34,16.10
2015,06,23,07,35,16.20
2015,06,23,07,36,16.20
2015,06,23,07,37,16.20
2015,06,23,07,38,16.20
2015,06,23,07,39,16.20
2015,06,23,07,40,16.20
2015,06,23,07,41,16.30
2015,06,23,07,42,16.30
2015,06,23,07,43,16.30
2015,06,23,07,44,16.30
2015,06,23,07,45,16.30
2015,06,23,07,46,16.30
2015,06,23,07,47,16.30
2015,06,23,07,48,16.30
2015,06,23,07,49,16.30
2015,06,23,07,50,16.30
2015,06,23,07,51,16.30
2015,06,23,07,52,16.30
2015,06,23,07,53,16.30
2015,06,23,07,54,16.30
2015,06,23,07,55,16.40
2015,06,23,07,56,16.40
2015,06,23,07,57,16.50
2015,06,23,07,58,16.60
2015,06,23,07,59,16.70
2015,06,23,08,00,16.70
2015,06,23,08,01,16.70
2015,06,23,08,02,16.70
2015,06,23,08,03,16.70
2015,06,23,08,04,16.70
2015,06,23,08,05,16.70
2015,06,23,08,06,16.80
2015,06,23,08,07,16.80
2015,06,23,08,08,16.90
2015,06,23,08,09,16.90
2015,06,23,08,10,17.00
2015,06,23,08,11,17.10
2015,06,23,08,12,17.10
2015,06,23,08,13,17.10
2015,06,23,08,14,17.00
2015,06,23,08,15,16.90
2015,06,23,08,16,16.90
2015,06,23,08,17,17.00
2015,06,23,08,18,17.00
2015,06,23,08,19,17.10
2015,06,23,08,20,17.10
2015,06,23,08,21,17.20
2015,06,23,08,22,17.30
2015,06,23,08,23,17.30
2015,06,23,08,24,17.40
2015,06,23,08,25,17.40
2015,06,23,08,26,17.40
2015,06,23,08,27,17.50
2015,06,23,08,28,17.50
2015,06,23,08,29,17.50
2015,06,23,08,30,17.50
2015,06,23,08,31,17.50
2015,06,23,08,32,17.50
2015,06,23,08,33,17.60
2015,06,23,08,34,17.70
2015,06,23,08,35,17.70
2015,06,23,08,36,17.80
2015,06,23,08,37,17.80
2015,06,23,08,38,17.90
2015,06,23,08,39,18.00
2015,06,23,08,40,18.10
2015,06,23,08,41,18.20
2015,06,23,08,42,18.20
2015,06,23,08,43,18.20
2015,06,23,08,44,18.20
2015,06,23,08,45,18.20
2015,06,23,08,46,18.20
2015,06,23,08,47,18.20
2015,06,23,08,48,18.20
2015,06,23,08,49,18.20
2015,06,23,08,50,18.20
2015,06,23,08,51,18.20
2015,06,23,08,52,18.20
2015,06,23,08,53,18.10
2015,06,23,08,54,18.00
2015,06,23,08,55,17.90
2015,06,23,08,56,18.00
2015,06,23,08,57,18.10
2015,06,23,08,58,18.20
2015,06,23,08,59,18.20
2015,06,23,09,00,18.20
2015,06,23,09,01,18.20
2015,06,23,09,02,18.10
2015,06,23,09,03,18.00
2015,06,23,09,04,18.00
2015,06,23,09,05,18.10
2015,06,23,09,06,18.10
2015,06,23,09,07,18.20
2015,06,23,09,08,18.20
2015,06,23,09,09,18.20
2015,06,23,09,10,18.20
2015,06,23,09,11,18.20
2015,06,23,09,12,18.20
2015,06,23,09,13,18.20
2015,06,23,09,14,18.20
2015,06,23,09,15,18.20
2015,06,23,09,16,18.20
2015,06,23,09,17,18.20
2015,06,23,09,18,18.10
2015,06,23,09,19,18.00
2015,06,23,09,20,17.90
2015,06,23,09,21,17.90
2015,06,23,09,22,17.90
2015,06,23,09,23,17.90
2015,06,23,09,24,18.10
2015,06,23,09,25,18.10
2015,06,23,09,26,18.20
2015,06,23,09,27,18.30
2015,06,23,09,28,18.30
2015,06,23,09,29,18.40
2015,06,23,09,30,18.50
2015,06,23,09,31,18.50
2015,06,23,09,32,18.40
2015,06,23,09,33,18.40
2015,06,23,09,34,18.30
2015,06,23,09,35,18.20
2015,06,23,09,36,18.20
2015,06,23,09,37,18.20
2015,06,23,09,38,18.20
2015,06,23,09,39,18.20
2015,06,23,09,40,18.30
2015,06,23,09,41,18.40
2015,06,23,09,42,18.50
2015,06,23,09,43,18.50
2015,06,23,09,44,18.60
2015,06,23,09,45,18.60
2015,06,23,09,46,18.70
2015,06,23,09,47,18.70
2015,06,23,09,48,18.80
2015,06,23,09,49,18.80
2015,06,23,09,50,18.90
2015,06,23,09,51,19.00
2015,06,23,09,52,19.10
2015,06,23,09,53,19.10
2015,06,23,09,54,19.20
2015,06,23,09,55,19.10
2015,06,23,09,56,18.90
2015,06,23,09,57,18.80
2015,06,23,09,58,18.80
2015,06,23,09,59,18.80
2015,06,23,10,00,18.80
2015,06,23,10,01,18.70
2015,06,23,10,02,18.60
2015,06,23,10,03,18.60
2015,06,23,10,04,18.60
2015,06,23,10,05,18.50
2015,06,23,10,06,18.50
2015,06,23,10,07,18.50
2015,06,23,10,08,18.50
2015,06,23,10,09,18.60
2015,06,23,10,10,18.70
2015,06,23,10,11,18.80
2015,06,23,10,12,18.90
2015,06,23,10,13,19.10
2015,06,23,10,14,19.20
2015,06,23,10,15,19.30
2015,06,23,10,16,19.20
2015,06,23,10,17,19.30
2015,06,23,10,18,19.30
2015,06,23,10,19,19.30
2015,06,23,10,20,19.20
2015,06,23,10,21,18.90
2015,06,23,10,22,18.70
2015,06,23,10,23,18.60
2015,06,23,10,24,18.60
2015,06,23,10,25,18.70
2015,06,23,10,26,18.80
2015,06,23,10,27,18.90
2015,06,23,10,28,19.10
2015,06,23,10,29,19.10
2015,06,23,10,30,19.10
2015,06,23,10,31,19.10
2015,06,23,10,32,19.10
2015,06,23,10,33,19.10
2015,06,23,10,34,19.00
2015,06,23,10,35,18.90
2015,06,23,10,36,18.80
2015,06,23,10,37,18.70
2015,06,23,10,38,18.70
2015,06,23,10,39,18.70
2015,06,23,10,40,18.80
2015,06,23,10,41,18.90
2015,06,23,10,42,19.00
2015,06,23,10,43,19.10
2015,06,23,10,44,19.10
2015,06,23,10,45,19.20
2015,06,23,10,46,19.40
2015,06,23,10,47,19.50
2015,06,23,10,48,19.40
2015,06,23,10,49,19.40
2015,06,23,10,50,19.30
2015,06,23,10,51,19.30
2015,06,23,10,52,19.40
2015,06,23,10,53,19.50
2015,06,23,10,54,19.60
2015,06,23,10,55,19.50
2015,06,23,10,56,19.40
2015,06,23,10,57,19.40
2015,06,23,10,58,19.30
2015,06,23,10,59,19.20
2015,06,23,11,00,19.20
2015,06,23,11,01,19.20
2015,06,23,11,02,19.20
2015,06,23,11,03,19.30
2015,06,23,11,04,19.40
2015,06,23,11,05,19.50
2015,06,23,11,06,19.60
2015,06,23,11,07,19.70
2015,06,23,11,08,19.70
2015,06,23,11,09,19.60
2015,06,23,11,10,19.50
2015,06,23,11,11,19.50
2015,06,23,11,12,19.60
2015,06,23,11,13,19.70
2015,06,23,11,14,19.70
2015,06,23,11,15,19.60
2015,06,23,11,16,19.50
2015,06,23,11,17,19.40
2015,06,23,11,18,19.50
2015,06,23,11,19,19.60
2015,06,23,11,20,19.60
2015,06,23,11,21,19.60
2015,06,23,11,22,19.70
2015,06,23,11,23,19.70
2015,06,23,11,24,19.80
2015,06,23,11,25,19.80
2015,06,23,11,26,19.80
2015,06,23,11,27,19.80
2015,06,23,11,28,19.80
2015,06,23,11,29,19.60
2015,06,23,11,30,19.50
2015,06,23,11,31,19.40
2015,06,23,11,32,19.40
2015,06,23,11,33,19.40
2015,06,23,11,34,19.40
2015,06,23,11,35,19.30
2015,06,23,11,36,19.40
2015,06,23,11,37,19.50
2015,06,23,11,38,19.60
2015,06,23,11,39,19.60
2015,06,23,11,40,19.70
2015,06,23,11,41,19.80
2015,06,23,11,42,19.90
2015,06,23,11,43,19.90
2015,06,23,11,44,19.90
2015,06,23,11,45,19.80
2015,06,23,11,46,19.80
2015,06,23,11,47,19.90
2015,06,23,11,48,19.90
2015,06,23,11,49,19.90
2015,06,23,11,50,19.90
2015,06,23,11,51,20.00
2015,06,23,11,52,20.20
2015,06,23,11,53,20.20
2015,06,23,11,54,20.20
2015,06,23,11,55,20.20
2015,06,23,11,56,20.20
2015,06,23,11,57,20.20
2015,06,23,11,58,20.20
2015,06,23,11,59,20.20
2015,06,23,12,00,20.20
2015,06,23,12,01,20.20
2015,06,23,12,02,20.40
2015,06,23,12,03,20.50
2015,06,23,12,04,20.50
2015,06,23,12,05,20.60
2015,06,23,12,06,20.70
2015,06,23,12,07,20.60
2015,06,23,12,08,20.50
2015,06,23,12,09,20.60
2015,06,23,12,10,20.70
2015,06,23,12,11,20.90
2015,06,23,12,12,21.10
2015,06,23,12,13,21.20
2015,06,23,12,14,21.30
2015,06,23,12,15,21.30
2015,06,23,12,16,21.20
2015,06,23,12,17,21.10
2015,06,23,12,18,21.00
2015,06,23,12,19,21.00
2015,06,23,12,20,21.00
2015,06,23,12,21,20.90
2015,06,23,12,22,20.70
2015,06,23,12,23,20.50
2015,06,23,12,24,20.30
2015,06,23,12,25,20.20
2015,06,23,12,26,20.00
2015,06,23,12,27,19.90
2015,06,23,12,28,19.90
2015,06,23,12,29,19.90
2015,06,23,12,30,20.00
2015,06,23,12,31,20.10
2015,06,23,12,32,20.20
2015,06,23,12,33,20.40
2015,06,23,12,34,20.50
2015,06,23,12,35,20.50
2015,06,23,12,36,20.30
2015,06,23,12,37,20.20
2015,06,23,12,38,20.20
2015,06,23,12,39,20.20
2015,06,23,12,40,20.20
2015,06,23,12,41,20.20
2015,06,23,12,42,20.30
2015,06,23,12,43,20.40
2015,06,23,12,44,20.40
2015,06,23,12,45,20.50
2015,06,23,12,46,20.70
2015,06,23,12,47,20.80
2015,06,23,12,48,20.90
2015,06,23,12,49,21.00
2015,06,23,12,50,21.10
2015,06,23,12,51,21.10
2015,06,23,12,52,20.90
2015,06,23,12,53,20.80
2015,06,23,12,54,20.80
2015,06,23,12,55,20.80
2015,06,23,12,56,20.80
2015,06,23,12,57,20.70
2015,06,23,12,58,20.40
2015,06,23,12,59,20.20
2015,06,23,13,00,20.20
2015,06,23,13,01,20.10
2015,06,23,13,02,20.00
2015,06,23,13,03,19.90
2015,06,23,13,04,19.90
2015,06,23,13,05,19.80
2015,06,23,13,06,19.70
2015,06,23,13,07,19.80
2015,06,23,13,08,19.80
2015,06,23,13,09,19.80
2015,06,23,13,10,19.80
2015,06,23,13,11,19.80
2015,06,23,13,12,19.90
2015,06,23,13,13,19.90
2015,06,23,13,14,20.10
2015,06,23,13,15,20.20
2015,06,23,13,16,20.20
2015,06,23,13,17,20.20
2015,06,23,13,18,20.20
2015,06,23,13,19,20.20
2015,06,23,13,20,20.30
2015,06,23,13,21,20.40
2015,06,23,13,22,20.50
2015,06,23,13,23,20.70
2015,06,23,13,24,20.80
2015,06,23,13,25,20.80
2015,06,23,13,26,20.90
2015,06,23,13,27,21.00
2015,06,23,13,28,21.00
2015,06,23,13,29,21.10
2015,06,23,13,30,21.10
2015,06,23,13,31,21.20
2015,06,23,13,32,21.30
2015,06,23,13,33,21.30
2015,06,23,13,34,21.20
2015,06,23,13,35,21.10
2015,06,23,13,36,21.00
2015,06,23,13,37,21.00
2015,06,23,13,38,21.00
2015,06,23,13,39,21.10
2015,06,23,13,40,21.20
2015,06,23,13,41,21.30
2015,06,23,13,42,21.30
2015,06,23,13,43,21.30
2015,06,23,13,44,21.30
2015,06,23,13,45,21.40
2015,06,23,13,46,21.40
2015,06,23,13,47,21.30
2015,06,23,13,48,21.20
2015,06,23,13,49,21.00
2015,06,23,13,50,20.80
2015,06,23,13,51,20.60
2015,06,23,13,52,20.60
2015,06,23,13,53,20.60
2015,06,23,13,54,20.80
2015,06,23,13,55,20.90
2015,06,23,13,56,20.90
2015,06,23,13,57,20.80
2015,06,23,13,58,20.90
2015,06,23,13,59,20.90
2015,06,23,14,00,20.90
2015,06,23,14,01,20.90
2015,06,23,14,02,20.90
2015,06,23,14,03,20.90
2015,06,23,14,04,20.90
2015,06,23,14,05,20.80
2015,06,23,14,06,20.90
2015,06,23,14,07,21.00
2015,06,23,14,08,21.00
2015,06,23,14,09,20.80
2015,06,23,14,10,20.80
2015,06,23,14,11,20.80
2015,06,23,14,12,21.00
2015,06,23,14,13,21.10
2015,06,23,14,14,21.20
2015,06,23,14,15,21.30
2015,06,23,14,16,21.30
2015,06,23,14,17,21.40
2015,06,23,14,18,21.40
2015,06,23,14,19,21.40
2015,06,23,14,20,21.40
2015,06,23,14,21,21.30
2015,06,23,14,22,21.30
2015,06,23,14,23,21.40
2015,06,23,14,24,21.40
2015,06,23,14,25,21.60
2015,06,23,14,26,21.80
2015,06,23,14,27,22.00
2015,06,23,14,28,22.10
2015,06,23,14,29,22.10
2015,06,23,14,30,22.10
2015,06,23,14,31,22.10
2015,06,23,14,32,22.20
2015,06,23,14,33,22.30
2015,06,23,14,34,22.30
2015,06,23,14,35,22.40
2015,06,23,14,36,22.40
2015,06,23,14,37,22.50
2015,06,23,14,38,22.50
2015,06,23,14,39,22.60
2015,06,23,14,40,22.70
2015,06,23,14,41,22.70
2015,06,23,14,42,22.70
2015,06,23,14,43,22.90
2015,06,23,14,44,23.00
2015,06,23,14,45,23.10
2015,06,23,14,46,23.30
2015,06,23,14,47,23.50
2015,06,23,14,48,23.70
2015,06,23,14,49,23.80
2015,06,23,14,50,24.00
2015,06,23,14,51,24.10
2015,06,23,14,52,24.10
2015,06,23,14,53,23.90
2015,06,23,14,54,23.70
2015,06,23,14,55,23.70
2015,06,23,14,56,23.60
2015,06,23,14,57,23.50
2015,06,23,14,58,23.40
2015,06,23,14,59,23.40
2015,06,23,15,00,23.40
2015,06,23,15,01,23.30
2015,06,23,15,02,23.30
2015,06,23,15,03,23.40
2015,06,23,15,04,23.40
2015,06,23,15,05,23.40
2015,06,23,15,06,23.30
2015,06,23,15,07,23.10
2015,06,23,15,08,22.90
2015,06,23,15,09,22.70
2015,06,23,15,10,22.50
2015,06,23,15,11,22.40
2015,06,23,15,12,22.30
2015,06,23,15,13,22.30
2015,06,23,15,14,22.30
2015,06,23,15,15,22.40
2015,06,23,15,16,22.50
2015,06,23,15,17,22.50
2015,06,23,15,18,22.50
2015,06,23,15,19,22.50
2015,06,23,15,20,22.40
2015,06,23,15,21,22.20
2015,06,23,15,22,22.20
2015,06,23,15,23,22.10
2015,06,23,15,24,22.00
2015,06,23,15,25,21.90
2015,06,23,15,26,21.90
2015,06,23,15,27,21.80
2015,06,23,15,28,21.80
2015,06,23,15,29,21.90
2015,06,23,15,30,21.90
2015,06,23,15,31,22.00
2015,06,23,15,32,22.00
2015,06,23,15,33,22.10
2015,06,23,15,34,22.00
2015,06,23,15,35,22.00
2015,06,23,15,36,21.90
2015,06,23,15,37,22.00
2015,06,23,15,38,22.00
2015,06,23,15,39,22.00
2015,06,23,15,40,22.00
2015,06,23,15,41,22.00
2015,06,23,15,42,22.00
2015,06,23,15,43,22.00
2015,06,23,15,44,21.90
2015,06,23,15,45,22.00
2015,06,23,15,46,22.00
2015,06,23,15,47,21.90
2015,06,23,15,48,21.90
2015,06,23,15,49,22.00
2015,06,23,15,50,22.10
2015,06,23,15,51,22.10
2015,06,23,15,52,22.10
2015,06,23,15,53,22.10
2015,06,23,15,54,22.10
2015,06,23,15,55,22.10
2015,06,23,15,56,22.10
2015,06,23,15,57,22.00
2015,06,23,15,58,21.80
2015,06,23,15,59,21.70
2015,06,23,16,00,21.70
2015,06,23,16,01,21.80
2015,06,23,16,02,21.80
2015,06,23,16,03,21.80
2015,06,23,16,04,21.60
2015,06,23,16,05,21.40
2015,06,23,16,06,21.40
2015,06,23,16,07,21.30
2015,06,23,16,08,21.30
2015,06,23,16,09,21.40
2015,06,23,16,10,21.50
2015,06,23,16,11,21.70
2015,06,23,16,12,21.80
2015,06,23,16,13,21.90
2015,06,23,16,14,22.00
2015,06,23,16,15,22.10
2015,06,23,16,16,22.00
2015,06,23,16,17,22.20
2015,06,23,16,18,22.30
2015,06,23,16,19,22.30
2015,06,23,16,20,22.20
2015,06,23,16,21,22.30
2015,06,23,16,22,22.30
2015,06,23,16,23,22.30
2015,06,23,16,24,22.10
2015,06,23,16,25,22.00
2015,06,23,16,26,22.00
2015,06,23,16,27,22.10
2015,06,23,16,28,22.30
2015,06,23,16,29,22.50
2015,06,23,16,30,22.60
2015,06,23,16,31,22.80
2015,06,23,16,32,22.90
2015,06,23,16,33,23.00
2015,06,23,16,34,23.20
2015,06,23,16,35,23.30
2015,06,23,16,36,23.40
2015,06,23,16,37,23.50
2015,06,23,16,38,23.70
2015,06,23,16,39,23.70
2015,06,23,16,40,23.70
2015,06,23,16,41,23.90
2015,06,23,16,42,23.90
2015,06,23,16,43,24.00
2015,06,23,16,44,24.10
2015,06,23,16,45,24.10
2015,06,23,16,46,24.10
2015,06,23,16,47,24.10
2015,06,23,16,48,23.90
2015,06,23,16,49,23.80
2015,06,23,16,50,23.80
2015,06,23,16,51,23.80
2015,06,23,16,52,23.90
2015,06,23,16,53,23.90
2015,06,23,16,54,24.10
2015,06,23,16,55,24.10
2015,06,23,16,56,24.30
2015,06,23,16,57,24.30
2015,06,23,16,58,24.40
2015,06,23,16,59,24.40
2015,06,23,17,00,24.40
2015,06,23,17,01,24.50
2015,06,23,17,02,24.60
2015,06,23,17,03,24.70
2015,06,23,17,04,24.80
2015,06,23,17,05,24.90
2015,06,23,17,06,25.00
2015,06,23,17,07,25.10
2015,06,23,17,08,25.10
2015,06,23,17,09,25.20
2015,06,23,17,10,25.20
2015,06,23,17,11,25.10
2015,06,23,17,12,25.10
2015,06,23,17,13,24.90
2015,06,23,17,14,24.80
2015,06,23,17,15,24.70
2015,06,23,17,16,24.50
2015,06,23,17,17,24.50
2015,06,23,17,18,24.60
2015,06,23,17,19,24.60